This demonstration page uses our WeatherBlox Daily Observations layout. Learn more.

Left ArrowRight Arrow

Hourly Observations for August 9, 2022

Temp ( °F °C ) Dew Point ( °F °C ) Humidity (%) Winds ( mph kmh ) Pressure ( in mb ) Visibility ( mi km ) Precip ( " mm )
12:52 am 00:52 Clear 65 18.3 61 16.1 87 87 Calm 30.10 1019 10 16 0.00 0.00
1:52 am 01:52 Clear 63 17.2 61 16.1 93 93 NW 5 7 30.09 1019 10 16 0.00 0.00
2:52 am 02:52 Clear 61 16.1 60 15.6 97 97 N 3 6 30.09 1019 10 16 0.00 0.00
3:52 am 03:52 Clear 60 15.6 58 14.4 93 93 NW 5 7 30.09 1019 10 16 0.00 0.00
4:52 am 04:52 Clear 59 15 58 14.4 96 96 Calm 30.09 1019 10 16 0.00 0.00
5:52 am 05:52 Clear 58 14.4 57 13.9 97 97 N 6 9 30.09 1019 10 16 0.00 0.00
6:52 am 06:52 Partly Cloudy with Patchy Fog 58 14.4 57 13.9 97 97 NNW 5 7 30.11 1020 10 16 0.00 0.00
7:52 am 07:52 Sunny 62 16.7 60 15.6 93 93 Calm 30.11 1020 10 16 0.00 0.00
8:52 am 08:52 Sunny 67 19.4 61 16.1 81 81 Calm 30.13 1020 10 16 0.00 0.00
9:52 am 09:52 Sunny 72 22.2 61 16.1 68 68 VRB 5 7 30.13 1020 10 16 0.00 0.00
10:52 am 10:52 Mostly Sunny 75 23.9 62 16.7 64 64 SSW 7 11 30.12 1020 10 16 0.00 0.00
11:52 am 11:52 Mostly Sunny 77 25 61 16.1 58 58 SE 6 9 30.11 1020 10 16 0.00 0.00
12:52 pm 12:52 Sunny 79 26.1 62 16.7 56 56 VRB 3 6 30.10 1019 10 16 0.00 0.00
1:52 pm 13:52 Sunny 82 27.8 62 16.7 51 51 VRB 3 6 30.09 1019 10 16 0.00 0.00
2:52 pm 14:52 Sunny 83 28.3 61 16.1 48 48 VRB 3 6 30.08 1019 10 16 0.00 0.00
3:52 pm 15:52 Sunny 85 29.4 61 16.1 45 45 VRB 5 7 30.06 1018 10 16 0.00 0.00
4:52 pm 16:52 Sunny 85 29.4 60 15.6 43 43 SSW 6 9 30.04 1017 10 16 0.00 0.00
5:52 pm 17:52 Sunny 86 30 61 16.1 43 43 SE 7 11 30.03 1017 10 16 0.00 0.00
6:52 pm 18:52 Sunny 84 28.9 62 16.7 48 48 E 10 17 30.03 1017 10 16 0.00 0.00
7:52 pm 19:52 Sunny 82 27.8 62 16.7 51 51 E 9 15 30.03 1017 10 16 0.00 0.00
8:52 pm 20:52 Clear 79 26.1 63 17.2 58 58 ESE 3 6 30.05 1018 10 16 0.00 0.00
9:52 pm 21:52 Clear 76 24.4 63 17.2 64 64 SE 6 9 30.06 1018 10 16 0.00 0.00
10:52 pm 22:52 Clear 75 23.9 63 17.2 66 66 ESE 3 6 30.08 1019 10 16 0.00 0.00
11:52 pm 23:52 Clear 74 23.3 63 17.2 69 69 SSE 5 7 30.09 1019 10 16 0.00 0.00

Powered by AerisWeather